Погода в Ханкале

Россия / Чеченская Республика     43°17′53″N   45°46′51″E
темп.,
°C
ветер,
м/с
пор.,
м/с
влажн.,
%
обл.,
%
осадки,
мм/ч
давл.,
гПа
погр.,
м
13 мая, чт
чт1300:00+13юв11770 0.0 101418
03:00+12ююв01810 0.0 101412
06:00+13в11740 0.0 1013102
09:00+19св22520 0.0 1014538
12:00+24св33400 0.0 1013944
15:00+26всв33405 0.0 10131058
18:00+23в33550 0.0 1013338
21:00+17юв1175100 0.0 101527
14 мая, пт
пт1400:00+16вюв11795 0.0 101415
03:00+15вюв01824 0.0 101311
06:00+16ю11766 0.0 101464
09:00+23св22530 0.0 1013478
12:00+28всв33400 0.0 1012893
15:00+31всв23350 0.0 10101038
18:00+28ссв13445 0.0 1010185
21:00+22юз12617 0.0 101129
15 мая, сб
сб1500:00+19ююз12680 0.0 101126
03:00+18юз11580 0.0 101114
06:00+19юз11550 0.0 101250
09:00+26с11390 0.0 1012495
12:00+30св22340 0.0 10121310
15:00+31всв33360 0.0 10111734
18:00+28всв233658 0.0 1010204
21:00+22ю1147100 0.0 101213
16 мая, вс
вс1600:00+20юз1256100 0.0 101140
03:00+19юв115940 0.0 101011
06:00+20зюз11575 0.0 101074
09:00+26ссв11413 0.0 1009565
12:00+30всв34354 0.0 10071103
15:00+32в33260 0.0 10051477
18:00+28всв34400 0.0 1004242
21:00+22з11480 0.0 100526
17 мая, пн
пн1700:00+19ю224351 0.0 100525
03:00+17ююз113439 0.0 100516
06:00+19юз11405 0.0 100554
09:00+26св222764 0.0 1005488
12:00+30всв332887 0.0 10041008
15:00+32в33260 0.0 10031094
18:00+27св33416 0.0 1004255
21:00+22з225325 0.0 100754